User: anonymous   Login
Location: Maiden
(35.5760°N, 81.2120°W)
Time: 22:47:39
(UTC-05:00)
Language:

Cosmos 2151 - Orbit

View from above orbital plane
View from above orbital plane
View from above satellite
View from above satellite

Ground track
Ground track

The orbit data is extracted from the following two-line orbital elements,

1 21422U 91042A   15024.49894519  .00001118  00000-0  11106-3 0  1263
2 21422 082.5023 358.3396 0013557 340.5143 019.5555 14.90788528278123
Epoch (UTC): 24 January 2015 11:58:28
Eccentricity: 0.0013557
inclination: 82.5023°
perigee height: 586 km
apogee height: 605 km
right ascension of ascending node: 358.3396°
argument of perigee: 340.5143°
revolutions per day: 14.90788528
mean anomaly at epoch: 19.5555°
orbit number at epoch: 27812

The dashed part of the orbit path shows where the satellite is in the earth's shadow,  

DLR